Year,Month,Day,Hour,Minute,Value (Times are PST for temperature in C)
2015,08,08,07,41,14.70
2015,08,08,07,42,14.70
2015,08,08,07,43,14.70
2015,08,08,07,44,14.70
2015,08,08,07,45,14.70
2015,08,08,07,46,14.70
2015,08,08,07,47,14.80
2015,08,08,07,48,14.80
2015,08,08,07,49,14.70
2015,08,08,07,50,14.70
2015,08,08,07,51,14.70
2015,08,08,07,52,14.70
2015,08,08,07,53,14.70
2015,08,08,07,54,14.70
2015,08,08,07,55,14.70
2015,08,08,07,56,14.70
2015,08,08,07,57,14.60
2015,08,08,07,58,14.60
2015,08,08,07,59,14.70
2015,08,08,08,00,14.70
2015,08,08,08,01,14.70
2015,08,08,08,02,14.80
2015,08,08,08,03,14.80
2015,08,08,08,04,14.80
2015,08,08,08,05,14.80
2015,08,08,08,06,14.80
2015,08,08,08,07,14.80
2015,08,08,08,08,14.80
2015,08,08,08,09,14.80
2015,08,08,08,10,14.70
2015,08,08,08,11,14.70
2015,08,08,08,12,14.80
2015,08,08,08,13,14.70
2015,08,08,08,14,14.70
2015,08,08,08,15,14.70
2015,08,08,08,16,14.70
2015,08,08,08,17,14.70
2015,08,08,08,18,14.80
2015,08,08,08,19,14.80
2015,08,08,08,20,14.80
2015,08,08,08,21,14.80
2015,08,08,08,22,14.80
2015,08,08,08,23,14.80
2015,08,08,08,24,14.90
2015,08,08,08,25,14.90
2015,08,08,08,26,15.00
2015,08,08,08,27,15.00
2015,08,08,08,28,15.00
2015,08,08,08,29,15.00
2015,08,08,08,30,15.00
2015,08,08,08,31,15.00
2015,08,08,08,32,15.00
2015,08,08,08,33,15.00
2015,08,08,08,34,15.00
2015,08,08,08,35,15.10
2015,08,08,08,36,15.10
2015,08,08,08,37,15.10
2015,08,08,08,38,15.20
2015,08,08,08,39,15.20
2015,08,08,08,40,15.20
2015,08,08,08,41,15.20
2015,08,08,08,42,15.20
2015,08,08,08,43,15.20
2015,08,08,08,44,15.30
2015,08,08,08,45,15.30
2015,08,08,08,46,15.30
2015,08,08,08,47,15.30
2015,08,08,08,48,15.30
2015,08,08,08,49,15.30
2015,08,08,08,50,15.30
2015,08,08,08,51,15.30
2015,08,08,08,52,15.30
2015,08,08,08,53,15.30
2015,08,08,08,54,15.30
2015,08,08,08,55,15.30
2015,08,08,08,56,15.20
2015,08,08,08,57,15.20
2015,08,08,08,58,15.20
2015,08,08,08,59,15.20
2015,08,08,09,00,15.20
2015,08,08,09,01,15.10
2015,08,08,09,02,15.10
2015,08,08,09,03,15.10
2015,08,08,09,04,15.00
2015,08,08,09,05,15.10
2015,08,08,09,06,15.10
2015,08,08,09,07,15.20
2015,08,08,09,08,15.20
2015,08,08,09,09,15.30
2015,08,08,09,10,15.30
2015,08,08,09,11,15.30
2015,08,08,09,12,15.30
2015,08,08,09,13,15.30
2015,08,08,09,14,15.30
2015,08,08,09,15,15.30
2015,08,08,09,16,15.30
2015,08,08,09,17,15.30
2015,08,08,09,18,15.20
2015,08,08,09,19,15.10
2015,08,08,09,20,15.10
2015,08,08,09,21,15.10
2015,08,08,09,22,15.10
2015,08,08,09,23,15.10
2015,08,08,09,24,15.10
2015,08,08,09,25,15.10
2015,08,08,09,26,15.10
2015,08,08,09,27,15.20
2015,08,08,09,28,15.20
2015,08,08,09,29,15.30
2015,08,08,09,30,15.30
2015,08,08,09,31,15.30
2015,08,08,09,32,15.30
2015,08,08,09,33,15.40
2015,08,08,09,34,15.40
2015,08,08,09,35,15.40
2015,08,08,09,36,15.40
2015,08,08,09,37,15.40
2015,08,08,09,38,15.40
2015,08,08,09,39,15.30
2015,08,08,09,40,15.30
2015,08,08,09,41,15.20
2015,08,08,09,42,15.20
2015,08,08,09,43,15.20
2015,08,08,09,44,15.20
2015,08,08,09,45,15.20
2015,08,08,09,46,15.20
2015,08,08,09,47,15.10
2015,08,08,09,48,15.10
2015,08,08,09,49,15.00
2015,08,08,09,50,15.00
2015,08,08,09,51,15.00
2015,08,08,09,52,15.00
2015,08,08,09,53,15.00
2015,08,08,09,54,15.00
2015,08,08,09,55,15.00
2015,08,08,09,56,15.00
2015,08,08,09,57,14.90
2015,08,08,09,58,14.80
2015,08,08,09,59,14.80
2015,08,08,10,00,14.80
2015,08,08,10,01,14.80
2015,08,08,10,02,14.70
2015,08,08,10,03,14.70
2015,08,08,10,04,14.60
2015,08,08,10,05,14.60
2015,08,08,10,06,14.60
2015,08,08,10,07,14.50
2015,08,08,10,08,14.50
2015,08,08,10,09,14.50
2015,08,08,10,10,14.60
2015,08,08,10,11,14.60
2015,08,08,10,12,14.70
2015,08,08,10,13,14.70
2015,08,08,10,14,14.70
2015,08,08,10,15,14.70
2015,08,08,10,16,14.80
2015,08,08,10,17,14.80
2015,08,08,10,18,14.80
2015,08,08,10,19,14.80
2015,08,08,10,20,14.80
2015,08,08,10,21,14.80
2015,08,08,10,22,14.80
2015,08,08,10,23,14.80
2015,08,08,10,24,14.80
2015,08,08,10,25,14.80
2015,08,08,10,26,14.80
2015,08,08,10,27,14.80
2015,08,08,10,28,14.80
2015,08,08,10,29,14.80
2015,08,08,10,30,14.80
2015,08,08,10,31,14.80
2015,08,08,10,32,14.80
2015,08,08,10,33,14.80
2015,08,08,10,34,14.80
2015,08,08,10,35,14.80
2015,08,08,10,36,14.80
2015,08,08,10,37,14.80
2015,08,08,10,38,14.80
2015,08,08,10,39,14.90
2015,08,08,10,40,14.90
2015,08,08,10,41,14.80
2015,08,08,10,42,14.80
2015,08,08,10,43,14.90
2015,08,08,10,44,14.90
2015,08,08,10,45,14.90
2015,08,08,10,46,14.90
2015,08,08,10,47,14.90
2015,08,08,10,48,14.80
2015,08,08,10,49,14.80
2015,08,08,10,50,14.80
2015,08,08,10,51,14.90
2015,08,08,10,52,14.90
2015,08,08,10,53,14.90
2015,08,08,10,54,14.90
2015,08,08,10,55,14.90
2015,08,08,10,56,15.00
2015,08,08,10,57,14.90
2015,08,08,10,58,14.90
2015,08,08,10,59,15.00
2015,08,08,11,00,15.00
2015,08,08,11,01,15.00
2015,08,08,11,02,15.10
2015,08,08,11,03,15.10
2015,08,08,11,04,15.20
2015,08,08,11,05,15.20
2015,08,08,11,06,15.20
2015,08,08,11,07,15.30
2015,08,08,11,08,15.30
2015,08,08,11,09,15.30
2015,08,08,11,10,15.30
2015,08,08,11,11,15.30
2015,08,08,11,12,15.30
2015,08,08,11,13,15.30
2015,08,08,11,14,15.30
2015,08,08,11,15,15.30
2015,08,08,11,16,15.40
2015,08,08,11,17,15.50
2015,08,08,11,18,15.60
2015,08,08,11,19,15.60
2015,08,08,11,20,15.60
2015,08,08,11,21,15.70
2015,08,08,11,22,15.70
2015,08,08,11,23,15.70
2015,08,08,11,24,15.70
2015,08,08,11,25,15.70
2015,08,08,11,26,15.80
2015,08,08,11,27,15.80
2015,08,08,11,28,15.80
2015,08,08,11,29,15.80
2015,08,08,11,30,15.80
2015,08,08,11,31,15.80
2015,08,08,11,32,15.80
2015,08,08,11,33,15.90
2015,08,08,11,34,15.90
2015,08,08,11,35,15.90
2015,08,08,11,36,16.00
2015,08,08,11,37,16.10
2015,08,08,11,38,16.10
2015,08,08,11,39,16.10
2015,08,08,11,40,16.10
2015,08,08,11,41,16.10
2015,08,08,11,42,16.10
2015,08,08,11,43,16.10
2015,08,08,11,44,16.10
2015,08,08,11,45,16.10
2015,08,08,11,46,16.10
2015,08,08,11,47,16.20
2015,08,08,11,48,16.10
2015,08,08,11,49,16.10
2015,08,08,11,50,16.10
2015,08,08,11,51,16.10
2015,08,08,11,52,16.10
2015,08,08,11,53,16.10
2015,08,08,11,54,16.10
2015,08,08,11,55,16.10
2015,08,08,11,56,15.90
2015,08,08,11,57,15.90
2015,08,08,11,58,15.80
2015,08,08,11,59,15.80
2015,08,08,12,00,15.80
2015,08,08,12,01,15.80
2015,08,08,12,02,15.90
2015,08,08,12,03,16.10
2015,08,08,12,04,16.10
2015,08,08,12,05,16.10
2015,08,08,12,06,16.20
2015,08,08,12,07,16.20
2015,08,08,12,08,16.20
2015,08,08,12,09,16.20
2015,08,08,12,10,16.20
2015,08,08,12,11,16.10
2015,08,08,12,12,16.20
2015,08,08,12,13,16.20
2015,08,08,12,14,16.20
2015,08,08,12,15,16.20
2015,08,08,12,16,16.30
2015,08,08,12,17,16.30
2015,08,08,12,18,16.30
2015,08,08,12,19,16.30
2015,08,08,12,20,16.30
2015,08,08,12,21,16.30
2015,08,08,12,22,16.40
2015,08,08,12,23,16.40
2015,08,08,12,24,16.40
2015,08,08,12,25,16.40
2015,08,08,12,26,16.50
2015,08,08,12,27,16.60
2015,08,08,12,28,16.60
2015,08,08,12,29,16.60
2015,08,08,12,30,16.60
2015,08,08,12,31,16.70
2015,08,08,12,32,16.70
2015,08,08,12,33,16.70
2015,08,08,12,34,16.70
2015,08,08,12,35,16.70
2015,08,08,12,36,16.70
2015,08,08,12,37,16.70
2015,08,08,12,38,16.70
2015,08,08,12,39,16.70
2015,08,08,12,40,16.70
2015,08,08,12,41,16.70
2015,08,08,12,42,16.80
2015,08,08,12,43,16.90
2015,08,08,12,44,16.90
2015,08,08,12,45,16.90
2015,08,08,12,46,16.80
2015,08,08,12,47,16.70
2015,08,08,12,48,16.70
2015,08,08,12,49,16.70
2015,08,08,12,50,16.60
2015,08,08,12,51,16.60
2015,08,08,12,52,16.60
2015,08,08,12,53,16.70
2015,08,08,12,54,16.70
2015,08,08,12,55,16.70
2015,08,08,12,56,16.70
2015,08,08,12,57,16.70
2015,08,08,12,58,16.70
2015,08,08,12,59,16.70
2015,08,08,13,00,16.70
2015,08,08,13,01,16.60
2015,08,08,13,02,16.50
2015,08,08,13,03,16.40
2015,08,08,13,04,16.40
2015,08,08,13,05,16.40
2015,08,08,13,06,16.40
2015,08,08,13,07,16.40
2015,08,08,13,08,16.40
2015,08,08,13,09,16.40
2015,08,08,13,10,16.40
2015,08,08,13,11,16.40
2015,08,08,13,12,16.40
2015,08,08,13,13,16.40
2015,08,08,13,14,16.40
2015,08,08,13,15,16.50
2015,08,08,13,16,16.60
2015,08,08,13,17,16.60
2015,08,08,13,18,16.60
2015,08,08,13,19,16.50
2015,08,08,13,20,16.40
2015,08,08,13,21,16.40
2015,08,08,13,22,16.40
2015,08,08,13,23,16.40
2015,08,08,13,24,16.40
2015,08,08,13,25,16.50
2015,08,08,13,26,16.60
2015,08,08,13,27,16.60
2015,08,08,13,28,16.60
2015,08,08,13,29,16.60
2015,08,08,13,30,16.70
2015,08,08,13,31,16.60
2015,08,08,13,32,16.60
2015,08,08,13,33,16.60
2015,08,08,13,34,16.60
2015,08,08,13,35,16.50
2015,08,08,13,36,16.40
2015,08,08,13,37,16.40
2015,08,08,13,38,16.40
2015,08,08,13,39,16.40
2015,08,08,13,40,16.40
2015,08,08,13,41,16.50
2015,08,08,13,42,16.60
2015,08,08,13,43,16.50
2015,08,08,13,44,16.50
2015,08,08,13,45,16.50
2015,08,08,13,46,16.40
2015,08,08,13,47,16.40
2015,08,08,13,48,16.40
2015,08,08,13,49,16.40
2015,08,08,13,50,16.40
2015,08,08,13,51,16.40
2015,08,08,13,52,16.40
2015,08,08,13,53,16.40
2015,08,08,13,54,16.40
2015,08,08,13,55,16.40
2015,08,08,13,56,16.40
2015,08,08,13,57,16.40
2015,08,08,13,58,16.40
2015,08,08,13,59,16.40
2015,08,08,14,00,16.40
2015,08,08,14,01,16.40
2015,08,08,14,02,16.40
2015,08,08,14,03,16.40
2015,08,08,14,04,16.30
2015,08,08,14,05,16.30
2015,08,08,14,06,16.40
2015,08,08,14,07,16.40
2015,08,08,14,08,16.40
2015,08,08,14,09,16.30
2015,08,08,14,10,16.30
2015,08,08,14,11,16.30
2015,08,08,14,12,16.30
2015,08,08,14,13,16.30
2015,08,08,14,14,16.30
2015,08,08,14,15,16.40
2015,08,08,14,16,16.40
2015,08,08,14,17,16.40
2015,08,08,14,18,16.40
2015,08,08,14,19,16.40
2015,08,08,14,20,16.50
2015,08,08,14,21,16.60
2015,08,08,14,22,16.60
2015,08,08,14,23,16.50
2015,08,08,14,24,16.40
2015,08,08,14,25,16.40
2015,08,08,14,26,16.40
2015,08,08,14,27,16.40
2015,08,08,14,28,16.40
2015,08,08,14,29,16.40
2015,08,08,14,30,16.40
2015,08,08,14,31,16.40
2015,08,08,14,32,16.50
2015,08,08,14,33,16.60
2015,08,08,14,34,16.60
2015,08,08,14,35,16.60
2015,08,08,14,36,16.60
2015,08,08,14,37,16.60
2015,08,08,14,38,16.70
2015,08,08,14,39,16.70
2015,08,08,14,40,16.60
2015,08,08,14,41,16.60
2015,08,08,14,42,16.70
2015,08,08,14,43,16.70
2015,08,08,14,44,16.60
2015,08,08,14,45,16.60
2015,08,08,14,46,16.60
2015,08,08,14,47,16.70
2015,08,08,14,48,16.70
2015,08,08,14,49,16.70
2015,08,08,14,50,16.70
2015,08,08,14,51,16.70
2015,08,08,14,52,16.70
2015,08,08,14,53,16.80
2015,08,08,14,54,16.80
2015,08,08,14,55,16.80
2015,08,08,14,56,16.80
2015,08,08,14,57,16.80
2015,08,08,14,58,16.80
2015,08,08,14,59,16.80
2015,08,08,15,00,16.80
2015,08,08,15,01,16.80
2015,08,08,15,02,16.90
2015,08,08,15,03,16.90
2015,08,08,15,04,16.90
2015,08,08,15,05,16.90
2015,08,08,15,06,16.90
2015,08,08,15,07,17.00
2015,08,08,15,08,17.00
2015,08,08,15,09,17.00
2015,08,08,15,10,17.10
2015,08,08,15,11,17.10
2015,08,08,15,12,17.10
2015,08,08,15,13,17.20
2015,08,08,15,14,17.20
2015,08,08,15,15,17.30
2015,08,08,15,16,17.30
2015,08,08,15,17,17.30
2015,08,08,15,18,17.30
2015,08,08,15,19,17.30
2015,08,08,15,20,17.40
2015,08,08,15,21,17.40
2015,08,08,15,22,17.40
2015,08,08,15,23,17.40
2015,08,08,15,24,17.40
2015,08,08,15,25,17.50
2015,08,08,15,26,17.50
2015,08,08,15,27,17.50
2015,08,08,15,28,17.50
2015,08,08,15,29,17.50
2015,08,08,15,30,17.40
2015,08,08,15,31,17.30
2015,08,08,15,32,17.30
2015,08,08,15,33,17.20
2015,08,08,15,34,17.20
2015,08,08,15,35,17.30
2015,08,08,15,36,17.30
2015,08,08,15,37,17.30
2015,08,08,15,38,17.30
2015,08,08,15,39,17.40
2015,08,08,15,40,17.40
2015,08,08,15,41,17.50
2015,08,08,15,42,17.50
2015,08,08,15,43,17.50
2015,08,08,15,44,17.40
2015,08,08,15,45,17.40
2015,08,08,15,46,17.40
2015,08,08,15,47,17.30
2015,08,08,15,48,17.10
2015,08,08,15,49,17.00
2015,08,08,15,50,16.90
2015,08,08,15,51,16.70
2015,08,08,15,52,16.60
2015,08,08,15,53,16.40
2015,08,08,15,54,16.30
2015,08,08,15,55,16.30
2015,08,08,15,56,16.30
2015,08,08,15,57,16.30
2015,08,08,15,58,16.30
2015,08,08,15,59,16.30
2015,08,08,16,00,16.30
2015,08,08,16,01,16.30
2015,08,08,16,02,16.30
2015,08,08,16,03,16.30
2015,08,08,16,04,16.30
2015,08,08,16,05,16.30
2015,08,08,16,06,16.40
2015,08,08,16,07,16.40
2015,08,08,16,08,16.40
2015,08,08,16,09,16.40
2015,08,08,16,10,16.40
2015,08,08,16,11,16.40
2015,08,08,16,12,16.40
2015,08,08,16,13,16.40
2015,08,08,16,14,16.40
2015,08,08,16,15,16.40
2015,08,08,16,16,16.50
2015,08,08,16,17,16.50
2015,08,08,16,18,16.40
2015,08,08,16,19,16.40
2015,08,08,16,20,16.50
2015,08,08,16,21,16.60
2015,08,08,16,22,16.60
2015,08,08,16,23,16.40
2015,08,08,16,24,16.40
2015,08,08,16,25,16.40
2015,08,08,16,26,16.40
2015,08,08,16,27,16.40
2015,08,08,16,28,16.30
2015,08,08,16,29,16.30
2015,08,08,16,30,16.30
2015,08,08,16,31,16.30
2015,08,08,16,32,16.30
2015,08,08,16,33,16.30
2015,08,08,16,34,16.30
2015,08,08,16,35,16.40
2015,08,08,16,36,16.40
2015,08,08,16,37,16.50
2015,08,08,16,38,16.60
2015,08,08,16,39,16.70
2015,08,08,16,40,16.70
2015,08,08,16,41,16.60
2015,08,08,16,42,16.60
2015,08,08,16,43,16.60
2015,08,08,16,44,16.70
2015,08,08,16,45,16.60
2015,08,08,16,46,16.70
2015,08,08,16,47,16.70
2015,08,08,16,48,16.70
2015,08,08,16,49,16.70
2015,08,08,16,50,16.70
2015,08,08,16,51,16.80
2015,08,08,16,52,16.80
2015,08,08,16,53,16.80
2015,08,08,16,54,16.80
2015,08,08,16,55,16.80
2015,08,08,16,56,16.90
2015,08,08,16,57,16.90
2015,08,08,16,58,16.90
2015,08,08,16,59,16.90
2015,08,08,17,00,16.90
2015,08,08,17,01,16.90
2015,08,08,17,02,16.90
2015,08,08,17,03,16.90
2015,08,08,17,04,16.90
2015,08,08,17,05,16.90
2015,08,08,17,06,16.90
2015,08,08,17,07,16.90
2015,08,08,17,08,16.90
2015,08,08,17,09,16.90
2015,08,08,17,10,16.90
2015,08,08,17,11,16.90
2015,08,08,17,12,17.00
2015,08,08,17,13,17.00
2015,08,08,17,14,17.00
2015,08,08,17,15,17.00
2015,08,08,17,16,17.00
2015,08,08,17,17,17.00
2015,08,08,17,18,17.00
2015,08,08,17,19,17.00
2015,08,08,17,20,17.00
2015,08,08,17,21,17.10
2015,08,08,17,22,17.10
2015,08,08,17,23,17.10
2015,08,08,17,24,17.20
2015,08,08,17,25,17.30
2015,08,08,17,26,17.30
2015,08,08,17,27,17.30
2015,08,08,17,28,17.30
2015,08,08,17,29,17.30
2015,08,08,17,30,17.30
2015,08,08,17,31,17.30
2015,08,08,17,32,17.30
2015,08,08,17,33,17.30
2015,08,08,17,34,17.30
2015,08,08,17,35,17.30
2015,08,08,17,36,17.30
2015,08,08,17,37,17.30
2015,08,08,18,11,18.30
2015,08,08,18,12,18.30
2015,08,08,18,13,18.30
2015,08,08,18,14,18.30
2015,08,08,18,15,18.30
2015,08,08,18,16,18.40
2015,08,08,18,17,18.40
2015,08,08,18,18,18.50
2015,08,08,18,19,18.60
2015,08,08,18,20,18.60
2015,08,08,18,21,18.60
2015,08,08,18,22,18.70
2015,08,08,18,23,18.80
2015,08,08,18,24,18.80
2015,08,08,18,25,18.80
2015,08,08,18,26,18.80
2015,08,08,18,27,18.90
2015,08,08,18,28,18.90
2015,08,08,18,29,18.90
2015,08,08,18,30,18.90
2015,08,08,18,31,18.90
2015,08,08,18,32,18.90
2015,08,08,18,33,18.90
2015,08,08,18,34,18.90
2015,08,08,18,35,18.90
2015,08,08,18,36,18.90
2015,08,08,18,37,18.90
2015,08,08,18,38,18.80
2015,08,08,18,39,18.10
2015,08,08,18,40,17.70
2015,08,08,18,41,17.50
2015,08,08,18,42,17.40
2015,08,08,18,43,17.40
2015,08,08,18,44,17.40
2015,08,08,18,45,17.50
2015,08,08,18,46,17.50
2015,08,08,18,47,17.50
2015,08,08,18,48,17.50
2015,08,08,18,49,17.50
2015,08,08,18,50,17.50
2015,08,08,18,51,17.50
2015,08,08,18,52,17.30
2015,08,08,18,53,17.10
2015,08,08,18,54,17.00
2015,08,08,18,55,17.00
2015,08,08,18,56,17.00
2015,08,08,18,57,17.00
2015,08,08,18,58,17.00
2015,08,08,18,59,17.00
2015,08,08,19,00,17.10
2015,08,08,19,01,17.10
2015,08,08,19,02,17.20
2015,08,08,19,03,17.20
2015,08,08,19,04,17.20
2015,08,08,19,05,17.20
2015,08,08,19,06,17.20
2015,08,08,19,07,17.10
2015,08,08,19,08,17.10
2015,08,08,19,09,17.10
2015,08,08,19,10,17.10
2015,08,08,19,11,17.20
2015,08,08,19,12,17.10
2015,08,08,19,13,17.00
2015,08,08,19,14,16.90
2015,08,08,19,15,16.80
2015,08,08,19,16,16.70
2015,08,08,19,17,16.70
2015,08,08,19,18,16.70
2015,08,08,19,19,16.60
2015,08,08,19,20,16.60
2015,08,08,19,21,16.60
2015,08,08,19,22,16.60
2015,08,08,19,23,16.60
2015,08,08,19,24,16.60
2015,08,08,19,25,16.60
2015,08,08,19,26,16.60
2015,08,08,19,27,16.60
2015,08,08,19,28,16.60
2015,08,08,19,29,16.60
2015,08,08,19,30,16.60
